Location: Killam
(52.7910°N, 111.8608°W)
Time: 22:11:32
(UTC+00:00)

NOAA 19 - Visible Passes

Search period start: 01 December 2023 00:00
Search period end: 11 December 2023 00:00
Orbit: 839 x 860 km, 99.1° (Epoch: 01 December)

Date Brightness Start Highest point End Pass type
(mag) Time Alt. Az. Time Alt. Az. Time Alt. Az.
01 Dec 7.3 02:49:02 15° N 02:49:02 15° N 02:49:58 10° N visible
02 Dec 7.3 02:36:45 15° N 02:36:45 15° N 02:37:41 10° N visible
03 Dec 7.3 02:24:28 14° N 02:24:28 14° N 02:25:22 10° N visible
03 Dec 8.0 04:06:26 10° NNW 04:06:26 10° NNW 04:06:29 10° NNW visible
04 Dec 7.3 02:12:10 14° N 02:12:10 14° N 02:13:01 10° N visible
04 Dec 7.9 03:54:09 11° NNW 03:54:09 11° NNW 03:54:20 10° NNW visible
05 Dec 7.3 01:59:53 13° N 01:59:53 13° N 02:00:38 10° N visible
05 Dec 7.8 03:41:52 11° NNW 03:41:52 11° NNW 03:42:09 10° NNW visible
06 Dec 7.3 01:47:36 12° NNE 01:47:36 12° NNE 01:48:11 10° N visible
06 Dec 7.7 03:29:34 12° NNW 03:29:34 12° NNW 03:29:57 10° NNW visible
07 Dec 7.3 01:35:17 11° NNE 01:35:17 11° NNE 01:35:42 10° NNE visible
07 Dec 7.6 03:17:16 12° N 03:17:16 12° N 03:17:44 10° NNW visible
08 Dec 7.3 01:22:59 10° NNE 01:22:59 10° NNE 01:23:04 10° NNE visible
08 Dec 7.5 03:04:58 13° N 03:04:58 13° N 03:05:28 10° N visible
09 Dec 7.5 02:52:39 13° N 02:52:39 13° N 02:53:12 10° N visible
10 Dec 7.4 02:40:20 13° N 02:40:20 13° N 02:40:54 10° N visible
